{"data":{"norad_id":27825,"intl_designator":"2003-026A","name":"THURAYA-2","alt_names":[],"object_type":"PAYLOAD","status":"ACTIVE","operator":null,"country":"UAE","launch_date":"2003-06-10","launch_site_code":"SEAL","launch_vehicle":null,"mission":null,"orbit_class":"UNKNOWN","rcs_meters":10.0237,"size_class":null,"mass_kg":null,"dimensions":null,"purposes":["comms"],"wikipedia_slug":null,"has_3d_model":false,"image_url":null,"decayed_at":null,"tle_current":{"epoch":"2026-09-19T12:02:50.235648Z","epoch_age_seconds":100768,"freshness":"FRESH","line1":"1 27825U 03026A   26262.50197032  .00000124  00000+0  00000+0 0  9995","line2":"2 27825   8.9843  31.5004 0000383  73.7419 117.8922  1.00272665 85299","mean_motion":1.00272665,"eccentricity":3.83e-5,"inclination_deg":8.9843,"raan_deg":31.5004,"arg_perigee_deg":73.7419,"mean_anomaly_deg":117.8922,"bstar":0,"rev_number":8529,"period_min":1436.0843007414,"perigee_km":35784.733367264,"apogee_km":35787.963166836,"semimajor_km":42164.48526705,"source":"CELESTRAK","updated_at":"2026-09-20T09:00:35.121837Z"}}}